Defiance, OH

7:12 PM EST on November 20, 2019 (GMT -0500)
Defiance Memorial

Weather History for KDFI - September, 2019

Change the Weather History Date:

Monday, September 9, 2019

  Actual Average Record
Temperature  
Mean Temperature 66 °F -  
Max Temperature 79 °F 79 °F 95 °F (1964)
Min Temperature 57 °F 54 °F 41 °F (1944)
Cooling Degree Days 1    
Growing Degree Days 16 (Base 50)    
Moisture  
Dew Point 57 °F    
Average Humidity 74    
Maximum Humidity 90    
Minimum Humidity 55    
Precipitation  
Precipitation 0.00 in - - ()
Sea Level Pressure  
Sea Level Pressure 30.21 in    
Wind  
Wind Speed 5 mph (ENE)    
Max Wind Speed 12 mph    
Max Gust Speed -    
Visibility 10 miles    
Events      
Averages and records for this station are not official NWS values.
T = Trace of Precipitation, MM = Missing Value Source: NWS Daily Summary

Daily Weather History Graph

Daily Weather History Graph

Search for Another Location

Airport or City:

Astronomy

Sep. 09, 2019 Rise Set
Actual Time 7:11 AM EDT 7:57 PM EDT
Civil Twilight 6:43 AM EDT 8:25 PM EDT
Nautical Twilight 6:10 AM EDT 8:58 PM EDT
Astronomical Twilight 5:36 AM EDT 9:32 PM EDT
Moon 5:55 PM EDT (9/9) 2:39 AM EDT (9/9)
Length of Visible Light 13h 41m
Length of Day
12h 45m
Waxing Gibbous, 83% of the Moon is Illuminated
Sep 9
Waxing Gibbous
Sep 14
Full
Sep 21
Last Quarter
Sep 28
New
Oct 5
First Quarter

Hourly Weather History & Observations

Time (EDT) Temp. Dew Point Humidity Pressure Visibility Wind Dir Wind Speed Gust Speed Precip Events Conditions
12:53 AM 62.1 °F 57.0 °F 84% 30.19 in 10.0 mi NE 4.6 mph - N/A   Partly Cloudy
1:53 AM 62.1 °F 57.9 °F 86% 30.20 in 10.0 mi NE 6.9 mph - N/A   Overcast
2:05 AM 62.1 °F 57.9 °F 86% 30.21 in 10.0 mi ENE 5.8 mph - N/A   Overcast
2:33 AM 61.0 °F 57.0 °F 87% 30.20 in 10.0 mi NE 5.8 mph - N/A   Overcast
2:53 AM 60.1 °F 57.0 °F 90% 30.19 in 10.0 mi NE 4.6 mph - N/A   Overcast
3:53 AM 57.9 °F 54.0 °F 87% 30.20 in 10.0 mi NNE 6.9 mph - N/A   Mostly Cloudy
4:53 AM 57.0 °F 53.1 °F 87% 30.18 in 10.0 mi NE 4.6 mph - N/A   Clear
5:53 AM 57.0 °F 53.1 °F 87% 30.20 in 10.0 mi NNE 3.5 mph - N/A   Mostly Cloudy
6:53 AM 57.0 °F 53.1 °F 87% 30.22 in 10.0 mi Calm Calm - N/A   Overcast
7:53 AM 57.0 °F 53.1 °F 87% 30.24 in 10.0 mi NNE 4.6 mph - N/A   Mostly Cloudy
8:53 AM 61.0 °F 55.0 °F 81% 30.25 in 10.0 mi ENE 4.6 mph - N/A   Mostly Cloudy
9:53 AM 64.0 °F 57.0 °F 78% 30.25 in 10.0 mi Variable 4.6 mph - N/A   Mostly Cloudy
10:53 AM 66.9 °F 55.9 °F 68% 30.25 in 10.0 mi ESE 5.8 mph - N/A   Mostly Cloudy
11:53 AM 71.1 °F 57.9 °F 63% 30.24 in 10.0 mi ESE 8.1 mph - N/A   Clear
12:53 PM 73.0 °F 57.9 °F 59% 30.23 in 10.0 mi ESE 5.8 mph - N/A   Clear
1:53 PM 75.0 °F 59.0 °F 57% 30.22 in 10.0 mi ESE 6.9 mph - N/A   Clear
2:53 PM 75.0 °F 57.9 °F 55% 30.22 in 10.0 mi Calm Calm - N/A   Scattered Clouds
3:53 PM 75.0 °F 59.0 °F 57% 30.21 in 10.0 mi SE 5.8 mph - N/A   Partly Cloudy
4:53 PM 75.9 °F 59.0 °F 56% 30.20 in 10.0 mi ENE 3.5 mph - N/A   Scattered Clouds
5:53 PM 75.9 °F 60.1 °F 58% 30.20 in 10.0 mi East 3.5 mph - N/A   Overcast
6:53 PM 73.9 °F 60.1 °F 62% 30.18 in 10.0 mi East 6.9 mph - N/A   Clear
7:53 PM 72.0 °F 60.1 °F 66% 30.19 in 10.0 mi East 3.5 mph - N/A   Clear
8:53 PM 69.1 °F 61.0 °F 75% 30.19 in 10.0 mi Calm Calm - N/A   Mostly Cloudy
9:53 PM 68.0 °F 59.0 °F 73% 30.21 in 10.0 mi East 10.4 mph - N/A   Clear
10:53 PM 66.9 °F 57.0 °F 70% 30.21 in 10.0 mi ESE 11.5 mph - N/A   Mostly Cloudy
11:53 PM 66.0 °F 57.0 °F 73% 30.20 in 10.0 mi ESE 9.2 mph - N/A   Overcast